LU1MQF-13 Weather Reports


time (UTC)temp
F
wind
direction
speed
knots
gust
knots
rain 1hr
in
rain 24hr
in
rain mn
in
humidity
%
barometer
mb
20260505121208 59 0 0.0 0.0 0.00 0.00 0.00 50 935.7
20260505115707 57 0 0.0 0.0 0.00 0.00 0.00 50 935.3
20260505114208 57 0 0.0 0.0 0.00 0.00 0.00 51 935.5
20260505112708 57 0 0.0 0.0 0.00 0.00 0.00 49 935.2
20260505111208 57 0 0.0 0.0 0.00 0.00 0.00 49 934.6
20260505101207 57 0 0.0 0.0 0.00 0.00 0.00 48 933.6
20260505095708 57 0 0.0 0.0 0.00 0.00 0.00 48 933.2
20260505094208 57 0 0.0 0.0 0.00 0.00 0.00 48 933.3
20260505092707 57 0 0.0 0.0 0.00 0.00 0.00 48 932.8
20260505091207 57 0 0.0 0.0 0.00 0.00 0.00 48 933.0
20260505085707 57 0 0.0 0.0 0.00 0.00 0.00 48 933.1
20260505084207 57 0 0.0 0.0 0.00 0.00 0.00 48 933.1
20260505082707 59 0 0.0 0.0 0.00 0.00 0.00 48 933.3
20260505081208 59 0 0.0 0.0 0.00 0.00 0.00 48 933.1
20260505075708 59 0 0.0 0.0 0.00 0.00 0.00 48 933.2
20260505074207 59 0 0.0 0.0 0.00 0.00 0.00 48 933.3
20260505072707 59 0 0.0 0.0 0.00 0.00 0.00 48 933.3
20260505071207 59 0 0.0 0.0 0.00 0.00 0.00 49 933.3
20260505065707 59 0 0.0 0.0 0.00 0.00 0.00 49 933.3
20260505064207 59 0 0.0 0.0 0.00 0.00 0.00 49 933.5
20260505062706 59 0 0.0 0.0 0.00 0.00 0.00 49 933.4
20260505061208 59 0 0.0 0.0 0.00 0.00 0.00 49 933.5
20260505055707 59 0 0.0 0.0 0.00 0.00 0.00 49 933.6
20260505054207 59 0 0.0 0.0 0.00 0.00 0.00 49 933.3
20260505052707 59 0 0.0 0.0 0.00 0.00 0.00 49 933.2
20260505051207 59 0 0.0 0.0 0.00 0.00 0.00 49 933.2
20260505041207 63 0 0.0 0.0 0.00 0.00 0.00 53 933.1
20260505035707 61 0 0.0 0.0 0.00 0.00 0.00 54 933.1
20260505034206 59 0 0.0 0.0 0.00 0.00 0.00 49 933.1
20260505032706 61 0 0.0 0.0 0.00 0.00 0.00 49 933.2
20260505031207 61 0 0.0 0.0 0.00 0.00 0.00 49 933.2
20260505025707 63 0 0.0 0.0 0.00 0.00 0.00 54 933.2
20260505024207 63 0 0.0 0.0 0.00 0.00 0.00 52 933.2
20260505022707 61 0 0.0 0.0 0.00 0.00 0.00 47 933.1
20260505021207 61 0 0.0 0.0 0.00 0.00 0.00 47 933.0
20260505015707 61 0 0.0 0.0 0.00 0.00 0.00 47 933.1
20260505014206 61 0 0.0 0.0 0.00 0.00 0.00 47 933.0
20260505012707 61 0 0.0 0.0 0.00 0.00 0.00 48 932.9
20260505011207 63 0 0.0 0.0 0.00 0.00 0.00 49 933.0
20260505005707 63 0 0.0 0.0 0.00 0.00 0.00 47 932.7
20260505004207 63 0 0.0 0.0 0.00 0.00 0.00 47 932.6
20260505002707 63 0 0.0 0.0 0.00 0.00 0.00 46 932.8
20260505001207 63 0 0.0 0.0 0.00 0.00 0.00 46 932.7
20260504235707 63 0 0.0 0.0 0.00 0.00 0.00 46 932.5
20260504234206 63 0 0.0 0.0 0.00 0.00 0.00 46 932.3
20260504232706 63 0 0.0 0.0 0.00 0.00 0.00 46 932.0
20260504231207 63 0 0.0 0.0 0.00 0.00 0.00 46 931.7
20260504225707 64 0 0.0 0.0 0.00 0.00 0.00 46 931.7
20260504224206 64 0 0.0 0.0 0.00 0.00 0.00 46 931.4
20260504222706 66 0 0.0 0.0 0.00 0.00 0.00 46 931.3
20260504221206 66 0 0.0 0.0 0.00 0.00 0.00 46 931.1
20260504215707 66 0 0.0 0.0 0.00 0.00 0.00 48 931.2
20260504214206 70 0 0.0 0.0 0.00 0.00 0.00 48 931.1
20260504212706 70 0 0.0 0.0 0.00 0.00 0.00 52 931.0
20260504211206 72 0 0.0 0.0 0.00 0.00 0.00 45 930.8
20260504205706 70 0 0.0 0.0 0.00 0.00 0.00 34 930.6
20260504204206 72 0 0.0 0.0 0.00 0.00 0.00 34 930.5
20260504202706 72 0 0.0 0.0 0.00 0.00 0.00 34 930.5
20260504201206 73 0 0.0 0.0 0.00 0.00 0.00 34 930.4
20260504195706 73 0 0.0 0.0 0.00 0.00 0.00 34 930.3
20260504192706 73 0 0.0 0.0 0.00 0.00 0.00 34 930.2
20260504191206 73 0 0.0 0.0 0.00 0.00 0.00 34 930.2
20260504185707 73 0 0.0 0.0 0.00 0.00 0.00 34 930.2
20260504184206 73 0 0.0 0.0 0.00 0.00 0.00 34 930.4
20260504182706 73 0 0.0 0.0 0.00 0.00 0.00 34 930.3
20260504181206 73 0 0.0 0.0 0.00 0.00 0.00 34 930.4
20260504175707 73 0 0.0 0.0 0.00 0.00 0.00 34 930.5
20260504174206 73 0 0.0 0.0 0.00 0.00 0.00 36 930.6
20260504172706 73 0 0.0 0.0 0.00 0.00 0.00 34 930.7
20260504171205 72 0 0.0 0.0 0.00 0.00 0.00 33 931.0
20260504141206 63 0 0.0 0.0 0.00 0.00 0.00 40 933.3